Time,TemperatureF,DewpointF,PressureIn,WindDirection,WindDirectionDegrees,WindSpeedMPH,WindSpeedGustMPH,Humidity,HourlyPrecipIn,Conditions,Clouds,dailyrainin,SoftwareType,DateUTC
2013-01-06 00:00:00,37.3,34.6,30.00,WSW,253,1.0,4.0,90,0.00,,---,0.00,VWS V14.00,2013-01-06 05:00:00,
2013-01-06 00:03:00,37.3,34.4,30.00,SW,231,0.0,4.0,89,0.00,,---,0.00,VWS V14.00,2013-01-06 05:03:00,
2013-01-06 00:06:00,37.4,34.5,30.00,SW,215,4.0,4.0,89,0.00,,---,0.00,VWS V14.00,2013-01-06 05:06:00,
2013-01-06 00:09:00,37.4,33.9,30.00,SW,233,0.0,4.0,87,0.00,,---,0.00,VWS V14.00,2013-01-06 05:09:00,
2013-01-06 00:12:00,37.4,33.9,30.00,SW,233,0.0,4.0,87,0.00,,---,0.00,VWS V14.00,2013-01-06 05:12:00,
2013-01-06 00:15:00,37.5,34.3,30.00,SSW,212,1.0,4.0,88,0.00,,---,0.00,VWS V14.00,2013-01-06 05:15:00,
2013-01-06 00:18:00,37.6,33.8,30.00,SE,139,0.0,4.0,86,0.00,,---,0.00,VWS V14.00,2013-01-06 05:18:00,
2013-01-06 00:21:00,37.7,33.9,30.00,WSW,240,0.0,4.0,86,0.00,,---,0.00,VWS V14.00,2013-01-06 05:21:00,
2013-01-06 00:24:00,37.7,33.9,30.00,WSW,240,0.0,4.0,86,0.00,,---,0.00,VWS V14.00,2013-01-06 05:24:00,
2013-01-06 00:27:00,37.8,34.0,30.00,ENE,60,0.0,4.0,86,0.00,,---,0.00,VWS V14.00,2013-01-06 05:27:00,
2013-01-06 00:30:00,37.9,34.4,30.00,NW,309,0.0,4.0,87,0.00,,---,0.00,VWS V14.00,2013-01-06 05:30:00,
2013-01-06 00:33:00,38.0,34.8,30.00,NE,39,0.0,1.0,88,0.00,,---,0.00,VWS V14.00,2013-01-06 05:33:00,
2013-01-06 00:36:00,38.0,34.8,30.00,NE,47,2.0,3.0,88,0.00,,---,0.00,VWS V14.00,2013-01-06 05:36:00,
2013-01-06 00:39:00,37.9,35.0,30.00,West,264,0.0,3.0,89,0.00,,---,0.00,VWS V14.00,2013-01-06 05:39:00,
2013-01-06 00:42:00,37.9,35.0,30.00,ENE,67,0.0,3.0,89,0.00,,---,0.00,VWS V14.00,2013-01-06 05:42:00,
2013-01-06 00:45:00,37.8,34.9,30.00,ENE,67,0.0,3.0,89,0.00,,---,0.00,VWS V14.00,2013-01-06 05:45:00,
2013-01-06 00:48:00,37.8,34.9,30.00,NNW,333,0.0,3.0,89,0.00,,---,0.00,VWS V14.00,2013-01-06 05:48:00,
2013-01-06 00:51:00,37.7,34.8,30.00,NNW,333,0.0,3.0,89,0.00,,---,0.00,VWS V14.00,2013-01-06 05:51:00,
2013-01-06 00:54:00,37.7,34.8,30.00,NNE,32,0.0,3.0,89,0.00,,---,0.00,VWS V14.00,2013-01-06 05:54:00,
2013-01-06 00:57:00,37.8,34.9,30.00,SSW,210,0.0,3.0,89,0.00,,---,0.00,VWS V14.00,2013-01-06 05:57:00,
2013-01-06 01:00:00,37.8,34.9,30.00,SW,233,0.0,3.0,89,0.00,,---,0.00,VWS V14.00,2013-01-06 06:00:00,
2013-01-06 01:03:00,37.9,34.7,30.00,SW,226,0.0,0.0,88,0.00,,---,0.00,VWS V14.00,2013-01-06 06:03:00,
2013-01-06 01:06:00,38.0,34.8,30.00,SSW,200,0.0,0.0,88,0.00,,---,0.00,VWS V14.00,2013-01-06 06:06:00,
2013-01-06 01:09:00,38.2,35.2,30.00,SE,137,0.0,0.0,89,0.00,,---,0.00,VWS V14.00,2013-01-06 06:09:00,
2013-01-06 01:12:00,38.2,35.2,30.00,SE,140,0.0,0.0,89,0.00,,---,0.00,VWS V14.00,2013-01-06 06:12:00,
2013-01-06 01:15:00,38.3,35.3,30.00,SSE,148,0.0,0.0,89,0.00,,---,0.00,VWS V14.00,2013-01-06 06:15:00,
2013-01-06 01:18:00,38.3,35.3,30.00,SSE,148,0.0,0.0,89,0.00,,---,0.00,VWS V14.00,2013-01-06 06:18:00,
2013-01-06 01:21:00,38.3,34.8,30.00,SW,233,0.0,0.0,87,0.00,,---,0.00,VWS V14.00,2013-01-06 06:21:00,
2013-01-06 01:24:00,38.4,34.9,30.00,SW,233,0.0,0.0,87,0.00,,---,0.00,VWS V14.00,2013-01-06 06:24:00,
2013-01-06 01:27:00,38.5,35.0,30.00,SW,233,0.0,0.0,87,0.00,,---,0.00,VWS V14.00,2013-01-06 06:27:00,
2013-01-06 01:30:00,38.4,34.3,30.00,SW,233,0.0,0.0,85,0.00,,---,0.00,VWS V14.00,2013-01-06 06:30:00,
2013-01-06 01:33:00,38.5,34.1,30.00,SW,233,0.0,0.0,84,0.00,,---,0.00,VWS V14.00,2013-01-06 06:33:00,
2013-01-06 01:36:00,38.7,34.3,30.00,SW,233,0.0,0.0,84,0.00,,---,0.00,VWS V14.00,2013-01-06 06:36:00,
2013-01-06 01:39:00,38.8,34.4,30.00,SW,235,0.0,0.0,84,0.00,,---,0.00,VWS V14.00,2013-01-06 06:39:00,
2013-01-06 01:42:00,38.8,34.1,30.00,North,3,0.0,0.0,83,0.00,,---,0.00,VWS V14.00,2013-01-06 06:42:00,
2013-01-06 01:45:00,38.9,34.8,30.00,North,4,0.0,0.0,85,0.00,,---,0.00,VWS V14.00,2013-01-06 06:45:00,
2013-01-06 01:48:00,38.9,34.8,30.00,North,4,0.0,0.0,85,0.00,,---,0.00,VWS V14.00,2013-01-06 06:48:00,
2013-01-06 01:51:00,38.9,34.5,30.00,North,4,0.0,0.0,84,0.00,,---,0.00,VWS V14.00,2013-01-06 06:51:00,
2013-01-06 01:54:00,39.0,34.6,30.00,NE,39,0.0,0.0,84,0.00,,---,0.00,VWS V14.00,2013-01-06 06:54:00,
2013-01-06 01:57:00,39.1,34.7,29.99,ENE,60,3.0,6.0,84,0.00,,---,0.00,VWS V14.00,2013-01-06 06:57:00,
2013-01-06 02:00:00,39.1,35.0,29.99,NNW,343,1.0,6.0,85,0.00,,---,0.00,VWS V14.00,2013-01-06 07:00:00,
2013-01-06 02:03:00,39.1,35.0,29.99,North,354,2.0,4.0,85,0.00,,---,0.00,VWS V14.00,2013-01-06 07:03:00,
2013-01-06 02:06:00,39.1,35.0,29.99,North,9,3.0,4.0,85,0.00,,---,0.00,VWS V14.00,2013-01-06 07:06:00,
2013-01-06 02:09:00,39.1,35.3,29.99,NW,324,2.0,4.0,86,0.00,,---,0.00,VWS V14.00,2013-01-06 07:09:00,
2013-01-06 02:12:00,39.2,35.7,29.99,NNW,330,2.0,4.0,87,0.00,,---,0.00,VWS V14.00,2013-01-06 07:12:00,
2013-01-06 02:15:00,39.1,35.6,29.99,NW,321,1.0,4.0,87,0.00,,---,0.00,VWS V14.00,2013-01-06 07:15:00,
2013-01-06 02:18:00,39.1,35.6,29.99,NNW,328,2.0,4.0,87,0.00,,---,0.00,VWS V14.00,2013-01-06 07:18:00,
2013-01-06 02:21:00,39.1,35.6,29.98,NNE,20,1.0,4.0,87,0.00,,---,0.00,VWS V14.00,2013-01-06 07:21:00,
2013-01-06 02:24:00,39.1,35.8,29.98,NE,34,4.0,5.0,88,0.00,,---,0.00,VWS V14.00,2013-01-06 07:24:00,
2013-01-06 02:27:00,39.1,35.8,29.98,NE,41,2.0,5.0,88,0.00,,---,0.00,VWS V14.00,2013-01-06 07:27:00,
2013-01-06 02:30:00,39.1,35.8,29.98,NE,39,2.0,5.0,88,0.00,,---,0.00,VWS V14.00,2013-01-06 07:30:00,
2013-01-06 02:33:00,39.0,36.0,29.98,NNW,330,0.0,6.0,89,0.00,,---,0.00,VWS V14.00,2013-01-06 07:33:00,
2013-01-06 02:36:00,39.0,36.0,29.98,ENE,58,1.0,6.0,89,0.00,,---,0.00,VWS V14.00,2013-01-06 07:36:00,
2013-01-06 02:39:00,38.9,35.9,29.98,NE,37,3.0,6.0,89,0.00,,---,0.00,VWS V14.00,2013-01-06 07:39:00,
2013-01-06 02:42:00,39.0,36.3,29.98,NE,46,7.0,7.0,90,0.00,,---,0.00,VWS V14.00,2013-01-06 07:42:00,
2013-01-06 02:45:00,38.9,36.2,29.98,NNW,343,2.0,8.0,90,0.00,,---,0.00,VWS V14.00,2013-01-06 07:45:00,
2013-01-06 02:48:00,38.9,36.2,29.97,NW,323,2.0,8.0,90,0.00,,---,0.00,VWS V14.00,2013-01-06 07:48:00,
2013-01-06 02:51:00,38.8,36.1,29.97,NE,46,5.0,8.0,90,0.00,,---,0.00,VWS V14.00,2013-01-06 07:51:00,
2013-01-06 02:54:00,38.8,36.1,29.97,NE,34,5.0,9.0,90,0.00,,---,0.00,VWS V14.00,2013-01-06 07:54:00,
2013-01-06 02:58:00,38.7,36.3,29.97,NW,311,0.0,9.0,91,0.00,,---,0.00,VWS V14.00,2013-01-06 07:58:00,
2013-01-06 03:00:00,38.7,36.3,29.97,NNE,27,6.0,9.0,91,0.00,,---,0.00,VWS V14.00,2013-01-06 08:00:00,
2013-01-06 03:01:00,38.7,36.3,29.97,NW,307,1.0,6.0,91,0.00,,---,0.00,VWS V14.00,2013-01-06 08:01:00,
2013-01-06 03:04:00,38.7,36.3,29.97,NE,36,2.0,6.0,91,0.00,,---,0.00,VWS V14.00,2013-01-06 08:04:00,
2013-01-06 03:07:00,38.7,36.3,29.97,NNE,25,2.0,6.0,91,0.00,,---,0.00,VWS V14.00,2013-01-06 08:07:00,
2013-01-06 03:10:00,38.7,36.3,29.96,NNW,333,4.0,6.0,91,0.00,,---,0.00,VWS V14.00,2013-01-06 08:10:00,
2013-01-06 03:13:00,38.7,36.3,29.96,NNW,329,2.0,6.0,91,0.00,,---,0.00,VWS V14.00,2013-01-06 08:13:00,
2013-01-06 03:16:00,38.7,36.6,29.96,NW,305,1.0,6.0,92,0.00,,---,0.00,VWS V14.00,2013-01-06 08:16:00,
2013-01-06 03:19:00,38.7,36.6,29.96,WNW,299,1.0,6.0,92,0.00,,---,0.00,VWS V14.00,2013-01-06 08:19:00,
2013-01-06 03:22:00,38.7,36.6,29.95,NNE,33,2.0,6.0,92,0.00,,---,0.00,VWS V14.00,2013-01-06 08:22:00,
2013-01-06 03:25:00,38.7,36.6,29.95,NE,34,2.0,6.0,92,0.00,,---,0.00,VWS V14.00,2013-01-06 08:25:00,
2013-01-06 03:28:00,38.6,36.5,29.95,NE,46,5.0,6.0,92,0.00,,---,0.00,VWS V14.00,2013-01-06 08:28:00,
2013-01-06 03:30:00,37.6,35.2,29.95,ENE,63,5.0,7.0,91,0.00,,---,0.00,VWS V14.00,2013-01-06 08:30:00,
2013-01-06 03:31:00,37.6,35.2,29.95,ENE,63,5.0,5.0,91,0.00,,---,0.00,VWS V14.00,2013-01-06 08:31:00,
2013-01-06 03:34:00,37.6,35.2,29.95,ENE,63,5.0,5.0,91,0.00,,---,0.00,VWS V14.00,2013-01-06 08:34:00,
2013-01-06 03:37:00,37.6,35.2,29.95,ENE,63,5.0,5.0,91,0.00,,---,0.00,VWS V14.00,2013-01-06 08:37:00,
2013-01-06 03:40:00,37.6,35.2,29.95,ENE,63,5.0,5.0,91,0.00,,---,0.00,VWS V14.00,2013-01-06 08:40:00,
2013-01-06 03:43:00,37.6,35.2,29.95,ENE,63,5.0,5.0,91,0.00,,---,0.00,VWS V14.00,2013-01-06 08:43:00,
2013-01-06 03:46:00,37.6,35.2,29.94,ENE,63,5.0,5.0,91,0.00,,---,0.00,VWS V14.00,2013-01-06 08:46:00,
2013-01-06 03:49:00,37.6,35.2,29.94,ENE,63,5.0,5.0,91,0.00,,---,0.00,VWS V14.00,2013-01-06 08:49:00,
2013-01-06 03:52:00,37.6,35.2,29.94,ENE,63,5.0,5.0,91,0.00,,---,0.00,VWS V14.00,2013-01-06 08:52:00,
2013-01-06 03:55:00,37.6,35.2,29.94,ENE,63,5.0,5.0,91,0.00,,---,0.00,VWS V14.00,2013-01-06 08:55:00,
2013-01-06 03:58:00,37.6,35.2,29.94,ENE,63,5.0,5.0,91,0.00,,---,0.00,VWS V14.00,2013-01-06 08:58:00,
2013-01-06 04:00:00,37.6,35.2,29.94,ENE,63,5.0,5.0,91,0.00,,---,0.00,VWS V14.00,2013-01-06 09:00:00,
2013-01-06 04:01:00,37.6,35.2,29.93,ENE,63,5.0,5.0,91,0.00,,---,0.00,VWS V14.00,2013-01-06 09:01:00,
2013-01-06 04:04:00,37.6,35.2,29.93,ENE,63,5.0,5.0,91,0.00,,---,0.00,VWS V14.00,2013-01-06 09:04:00,
2013-01-06 04:07:00,37.6,35.2,29.93,ENE,63,5.0,5.0,91,0.00,,---,0.00,VWS V14.00,2013-01-06 09:07:00,
2013-01-06 04:10:00,37.6,35.2,29.93,ENE,63,5.0,5.0,91,0.00,,---,0.00,VWS V14.00,2013-01-06 09:10:00,
2013-01-06 04:13:00,37.6,35.2,29.92,ENE,63,5.0,5.0,91,0.00,,---,0.00,VWS V14.00,2013-01-06 09:13:00,
2013-01-06 04:16:00,37.6,35.2,29.92,ENE,63,5.0,5.0,91,0.00,,---,0.00,VWS V14.00,2013-01-06 09:16:00,
2013-01-06 04:19:00,37.6,35.2,29.92,ENE,63,5.0,5.0,91,0.00,,---,0.00,VWS V14.00,2013-01-06 09:19:00,
2013-01-06 04:22:00,37.6,35.2,29.92,ENE,63,5.0,5.0,91,0.00,,---,0.00,VWS V14.00,2013-01-06 09:22:00,
2013-01-06 04:25:00,37.6,35.2,29.92,ENE,63,5.0,5.0,91,0.00,,---,0.00,VWS V14.00,2013-01-06 09:25:00,
2013-01-06 04:28:00,37.6,35.2,29.92,ENE,63,5.0,5.0,91,0.00,,---,0.00,VWS V14.00,2013-01-06 09:28:00,
2013-01-06 04:30:00,37.6,35.2,29.92,ENE,63,5.0,5.0,91,0.00,,---,0.00,VWS V14.00,2013-01-06 09:30:00,
2013-01-06 04:31:00,37.6,35.2,29.92,ENE,63,5.0,5.0,91,0.00,,---,0.00,VWS V14.00,2013-01-06 09:31:00,
2013-01-06 04:34:00,37.6,35.2,29.92,ENE,63,5.0,5.0,91,0.00,,---,0.00,VWS V14.00,2013-01-06 09:34:00,
2013-01-06 04:37:00,37.6,35.2,29.92,ENE,63,5.0,5.0,91,0.00,,---,0.00,VWS V14.00,2013-01-06 09:37:00,
2013-01-06 04:40:00,37.6,35.2,29.92,ENE,63,5.0,5.0,91,0.00,,---,0.00,VWS V14.00,2013-01-06 09:40:00,
2013-01-06 04:43:00,37.6,35.2,29.91,ENE,63,5.0,5.0,91,0.00,,---,0.00,VWS V14.00,2013-01-06 09:43:00,
2013-01-06 04:46:00,37.6,35.2,29.92,ENE,63,5.0,5.0,91,0.00,,---,0.00,VWS V14.00,2013-01-06 09:46:00,
2013-01-06 04:49:00,37.6,35.2,29.92,ENE,63,5.0,5.0,91,0.00,,---,0.00,VWS V14.00,2013-01-06 09:49:00,
2013-01-06 04:52:00,37.6,35.2,29.92,ENE,63,5.0,5.0,91,0.00,,---,0.00,VWS V14.00,2013-01-06 09:52:00,
2013-01-06 04:55:00,37.6,35.2,29.92,ENE,63,5.0,5.0,91,0.00,,---,0.00,VWS V14.00,2013-01-06 09:55:00,
2013-01-06 04:58:00,37.6,35.2,29.91,ENE,63,5.0,5.0,91,0.00,,---,0.00,VWS V14.00,2013-01-06 09:58:00,
2013-01-06 05:00:00,37.6,35.2,29.91,ENE,63,5.0,5.0,91,0.00,,---,0.00,VWS V14.00,2013-01-06 10:00:00,
2013-01-06 05:01:00,37.6,35.2,29.92,ENE,63,5.0,5.0,91,0.00,,---,0.00,VWS V14.00,2013-01-06 10:01:00,
2013-01-06 05:04:00,37.6,35.2,29.91,ENE,63,5.0,5.0,91,0.00,,---,0.00,VWS V14.00,2013-01-06 10:04:00,
2013-01-06 05:07:00,37.6,35.2,29.91,ENE,63,5.0,5.0,91,0.00,,---,0.00,VWS V14.00,2013-01-06 10:07:00,
2013-01-06 05:10:00,37.6,35.2,29.92,ENE,63,5.0,5.0,91,0.00,,---,0.00,VWS V14.00,2013-01-06 10:10:00,
2013-01-06 05:13:00,37.6,35.2,29.91,ENE,63,5.0,5.0,91,0.00,,---,0.00,VWS V14.00,2013-01-06 10:13:00,
2013-01-06 05:16:00,37.6,35.2,29.92,ENE,63,5.0,5.0,91,0.00,,---,0.00,VWS V14.00,2013-01-06 10:16:00,
2013-01-06 05:19:00,37.6,35.2,29.91,ENE,63,5.0,5.0,91,0.00,,---,0.00,VWS V14.00,2013-01-06 10:19:00,
2013-01-06 05:22:00,37.6,35.2,29.91,ENE,63,5.0,5.0,91,0.00,,---,0.00,VWS V14.00,2013-01-06 10:22:00,
2013-01-06 05:25:00,37.6,35.2,29.91,ENE,63,5.0,5.0,91,0.00,,---,0.00,VWS V14.00,2013-01-06 10:25:00,
2013-01-06 05:28:00,37.6,35.2,29.91,ENE,63,5.0,5.0,91,0.00,,---,0.00,VWS V14.00,2013-01-06 10:28:00,
2013-01-06 05:30:00,37.6,35.2,29.91,ENE,63,5.0,5.0,91,0.00,,---,0.00,VWS V14.00,2013-01-06 10:30:00,
2013-01-06 05:31:00,37.6,35.2,29.91,ENE,63,5.0,5.0,91,0.00,,---,0.00,VWS V14.00,2013-01-06 10:31:00,
2013-01-06 05:34:00,37.6,35.2,29.92,ENE,63,5.0,5.0,91,0.00,,---,0.00,VWS V14.00,2013-01-06 10:34:00,
2013-01-06 05:37:00,37.6,35.2,29.91,ENE,63,5.0,5.0,91,0.00,,---,0.00,VWS V14.00,2013-01-06 10:37:00,
2013-01-06 05:40:00,37.6,35.2,29.91,ENE,63,5.0,5.0,91,0.00,,---,0.00,VWS V14.00,2013-01-06 10:40:00,
2013-01-06 05:43:00,37.6,35.2,29.92,ENE,63,5.0,5.0,91,0.00,,---,0.00,VWS V14.00,2013-01-06 10:43:00,
2013-01-06 05:46:00,37.6,35.2,29.92,ENE,63,5.0,5.0,91,0.00,,---,0.00,VWS V14.00,2013-01-06 10:46:00,
2013-01-06 05:49:00,37.6,35.2,29.92,ENE,63,5.0,5.0,91,0.00,,---,0.00,VWS V14.00,2013-01-06 10:49:00,
2013-01-06 05:52:00,37.6,35.2,29.92,ENE,63,5.0,5.0,91,0.00,,---,0.00,VWS V14.00,2013-01-06 10:52:00,
2013-01-06 05:55:00,37.6,35.2,29.92,ENE,63,5.0,5.0,91,0.00,,---,0.00,VWS V14.00,2013-01-06 10:55:00,
2013-01-06 05:58:00,37.6,35.2,29.92,ENE,63,5.0,5.0,91,0.00,,---,0.00,VWS V14.00,2013-01-06 10:58:00,
2013-01-06 06:00:00,37.6,35.2,29.92,ENE,63,5.0,5.0,91,0.00,,---,0.00,VWS V14.00,2013-01-06 11:00:00,
2013-01-06 06:01:00,37.6,35.2,29.93,ENE,63,5.0,5.0,91,0.00,,---,0.00,VWS V14.00,2013-01-06 11:01:00,
2013-01-06 06:04:00,37.6,35.2,29.92,ENE,63,5.0,5.0,91,0.00,,---,0.00,VWS V14.00,2013-01-06 11:04:00,
2013-01-06 06:07:00,37.6,35.2,29.92,ENE,63,5.0,5.0,91,0.00,,---,0.00,VWS V14.00,2013-01-06 11:07:00,
2013-01-06 06:10:00,37.6,35.2,29.92,ENE,63,5.0,5.0,91,0.00,,---,0.00,VWS V14.00,2013-01-06 11:10:00,
2013-01-06 06:13:00,37.6,35.2,29.92,ENE,63,5.0,5.0,91,0.00,,---,0.00,VWS V14.00,2013-01-06 11:13:00,
2013-01-06 06:16:00,37.6,35.2,29.92,ENE,63,5.0,5.0,91,0.00,,---,0.00,VWS V14.00,2013-01-06 11:16:00,
2013-01-06 06:19:00,37.6,35.2,29.92,ENE,63,5.0,5.0,91,0.00,,---,0.00,VWS V14.00,2013-01-06 11:19:00,
2013-01-06 06:22:00,37.6,35.2,29.92,ENE,63,5.0,5.0,91,0.00,,---,0.00,VWS V14.00,2013-01-06 11:22:00,
2013-01-06 06:25:00,37.6,35.2,29.92,ENE,63,5.0,5.0,91,0.00,,---,0.00,VWS V14.00,2013-01-06 11:25:00,
2013-01-06 06:28:00,37.6,35.2,29.92,ENE,63,5.0,5.0,91,0.00,,---,0.00,VWS V14.00,2013-01-06 11:28:00,
2013-01-06 06:30:00,37.6,35.2,29.93,ENE,63,5.0,5.0,91,0.00,,---,0.00,VWS V14.00,2013-01-06 11:30:00,
2013-01-06 06:31:00,37.6,35.2,29.93,ENE,63,5.0,5.0,91,0.00,,---,0.00,VWS V14.00,2013-01-06 11:31:00,
2013-01-06 06:34:00,37.6,35.2,29.92,ENE,63,5.0,5.0,91,0.00,,---,0.00,VWS V14.00,2013-01-06 11:34:00,
2013-01-06 06:37:00,37.6,35.2,29.93,ENE,63,5.0,5.0,91,0.00,,---,0.00,VWS V14.00,2013-01-06 11:37:00,
2013-01-06 06:40:00,37.6,35.2,29.92,ENE,63,5.0,5.0,91,0.00,,---,0.00,VWS V14.00,2013-01-06 11:40:00,
2013-01-06 06:43:00,37.6,35.2,29.92,ENE,63,5.0,5.0,91,0.00,,---,0.00,VWS V14.00,2013-01-06 11:43:00,
2013-01-06 06:46:00,37.6,35.2,29.92,ENE,63,5.0,5.0,91,0.00,,---,0.00,VWS V14.00,2013-01-06 11:46:00,
2013-01-06 06:49:00,37.6,35.2,29.92,ENE,63,5.0,5.0,91,0.00,,---,0.00,VWS V14.00,2013-01-06 11:49:00,
2013-01-06 06:52:00,37.6,35.2,29.93,ENE,63,5.0,5.0,91,0.00,,---,0.00,VWS V14.00,2013-01-06 11:52:00,
2013-01-06 06:55:00,37.6,35.2,29.92,ENE,63,5.0,5.0,91,0.00,,---,0.00,VWS V14.00,2013-01-06 11:55:00,
2013-01-06 06:58:00,37.6,35.2,29.93,ENE,63,5.0,5.0,91,0.00,,---,0.00,VWS V14.00,2013-01-06 11:58:00,
2013-01-06 07:00:00,37.6,35.2,29.93,ENE,63,5.0,5.0,91,0.00,,---,0.00,VWS V14.00,2013-01-06 12:00:00,
2013-01-06 07:01:00,37.6,35.2,29.93,ENE,63,5.0,5.0,91,0.00,,---,0.00,VWS V14.00,2013-01-06 12:01:00,
2013-01-06 07:04:00,37.6,35.2,29.93,ENE,63,5.0,5.0,91,0.00,,---,0.00,VWS V14.00,2013-01-06 12:04:00,
2013-01-06 07:07:00,37.6,35.2,29.93,ENE,63,5.0,5.0,91,0.00,,---,0.00,VWS V14.00,2013-01-06 12:07:00,
2013-01-06 07:10:00,37.6,35.2,29.93,ENE,63,5.0,5.0,91,0.00,,---,0.00,VWS V14.00,2013-01-06 12:10:00,
2013-01-06 07:13:00,37.6,35.2,29.93,ENE,63,5.0,5.0,91,0.00,,---,0.00,VWS V14.00,2013-01-06 12:13:00,
2013-01-06 07:16:00,37.6,35.2,29.93,ENE,63,5.0,5.0,91,0.00,,---,0.00,VWS V14.00,2013-01-06 12:16:00,
2013-01-06 07:19:00,37.6,35.2,29.93,ENE,63,5.0,5.0,91,0.00,,---,0.00,VWS V14.00,2013-01-06 12:19:00,
2013-01-06 07:22:00,37.6,35.2,29.93,ENE,63,5.0,5.0,91,0.00,,---,0.00,VWS V14.00,2013-01-06 12:22:00,
2013-01-06 07:25:00,37.6,35.2,29.93,ENE,63,5.0,5.0,91,0.00,,---,0.00,VWS V14.00,2013-01-06 12:25:00,
2013-01-06 07:28:00,37.6,35.2,29.93,ENE,63,5.0,5.0,91,0.00,,---,0.00,VWS V14.00,2013-01-06 12:28:00,
2013-01-06 07:30:00,37.6,35.2,29.94,ENE,63,5.0,5.0,91,0.00,,---,0.00,VWS V14.00,2013-01-06 12:30:00,
2013-01-06 07:31:00,37.6,35.2,29.94,ENE,63,5.0,5.0,91,0.00,,---,0.00,VWS V14.00,2013-01-06 12:31:00,
2013-01-06 07:34:00,37.6,35.2,29.93,ENE,63,5.0,5.0,91,0.00,,---,0.00,VWS V14.00,2013-01-06 12:34:00,
2013-01-06 07:38:00,37.6,35.2,29.93,ENE,63,5.0,5.0,91,0.00,,---,0.00,VWS V14.00,2013-01-06 12:38:00,
2013-01-06 07:41:00,37.6,35.2,29.93,ENE,63,5.0,5.0,91,0.00,,---,0.00,VWS V14.00,2013-01-06 12:41:00,
2013-01-06 07:44:00,37.6,35.2,29.93,ENE,63,5.0,5.0,91,0.00,,---,0.00,VWS V14.00,2013-01-06 12:44:00,
2013-01-06 07:47:00,37.6,35.2,29.93,ENE,63,5.0,5.0,91,0.00,,---,0.00,VWS V14.00,2013-01-06 12:47:00,
2013-01-06 07:50:00,37.6,35.2,29.93,ENE,63,5.0,5.0,91,0.00,,---,0.00,VWS V14.00,2013-01-06 12:50:00,
2013-01-06 07:53:00,37.6,35.2,29.93,ENE,63,5.0,5.0,91,0.00,,---,0.00,VWS V14.00,2013-01-06 12:53:00,
2013-01-06 07:56:00,37.6,35.2,29.92,ENE,63,5.0,5.0,91,0.00,,---,0.00,VWS V14.00,2013-01-06 12:56:00,
2013-01-06 07:59:00,37.6,35.2,29.93,ENE,63,5.0,5.0,91,0.00,,---,0.00,VWS V14.00,2013-01-06 12:59:00,
2013-01-06 08:00:00,37.6,35.2,29.93,ENE,63,5.0,5.0,91,0.00,,---,0.00,VWS V14.00,2013-01-06 13:00:00,
2013-01-06 08:02:00,37.6,35.2,29.93,ENE,63,5.0,5.0,91,0.00,,---,0.00,VWS V14.00,2013-01-06 13:02:00,
2013-01-06 08:05:00,37.6,35.2,29.93,ENE,63,5.0,5.0,91,0.00,,---,0.00,VWS V14.00,2013-01-06 13:05:00,
2013-01-06 08:08:00,39.7,37.6,29.93,WNW,293,2.0,5.0,92,0.00,,---,0.00,VWS V14.00,2013-01-06 13:08:00,
2013-01-06 08:11:00,39.9,37.8,29.93,North,5,3.0,5.0,92,0.00,,---,0.00,VWS V14.00,2013-01-06 13:11:00,
2013-01-06 08:14:00,40.0,37.9,29.94,WSW,255,0.0,5.0,92,0.00,,---,0.00,VWS V14.00,2013-01-06 13:14:00,
2013-01-06 08:17:00,40.2,37.8,29.94,SW,229,1.0,5.0,91,0.00,,---,0.00,VWS V14.00,2013-01-06 13:17:00,
2013-01-06 08:20:00,40.2,37.8,29.94,SSE,162,1.0,5.0,91,0.00,,---,0.00,VWS V14.00,2013-01-06 13:20:00,
2013-01-06 08:23:00,40.3,38.2,29.94,East,79,0.0,5.0,92,0.00,,---,0.00,VWS V14.00,2013-01-06 13:23:00,
2013-01-06 08:26:00,40.4,38.3,29.94,East,96,2.0,5.0,92,0.00,,---,0.00,VWS V14.00,2013-01-06 13:26:00,
2013-01-06 08:29:00,40.6,38.2,29.94,SW,214,2.0,5.0,91,0.00,,---,0.00,VWS V14.00,2013-01-06 13:29:00,
2013-01-06 08:30:00,40.6,38.2,29.94,South,169,2.0,5.0,91,0.00,,---,0.00,VWS V14.00,2013-01-06 13:30:00,
2013-01-06 08:32:00,40.7,38.3,29.94,SSE,162,0.0,2.0,91,0.00,,---,0.00,VWS V14.00,2013-01-06 13:32:00,
2013-01-06 08:35:00,40.8,38.4,29.94,SSE,163,0.0,2.0,91,0.00,,---,0.00,VWS V14.00,2013-01-06 13:35:00,
2013-01-06 08:38:00,40.9,38.5,29.94,SSE,163,0.0,2.0,91,0.00,,---,0.00,VWS V14.00,2013-01-06 13:38:00,
2013-01-06 08:41:00,41.0,38.6,29.94,WSW,240,0.0,2.0,91,0.00,,---,0.00,VWS V14.00,2013-01-06 13:41:00,
2013-01-06 08:44:00,41.0,38.3,29.94,NE,51,2.0,3.0,90,0.00,,---,0.00,VWS V14.00,2013-01-06 13:44:00,
2013-01-06 08:47:00,40.9,38.2,29.94,ENE,63,5.0,7.0,90,0.00,,---,0.00,VWS V14.00,2013-01-06 13:47:00,
2013-01-06 08:50:00,40.9,38.2,29.94,NNW,338,2.0,8.0,90,0.00,,---,0.00,VWS V14.00,2013-01-06 13:50:00,
2013-01-06 08:53:00,40.9,38.2,29.94,North,358,3.0,8.0,90,0.00,,---,0.00,VWS V14.00,2013-01-06 13:53:00,
2013-01-06 08:56:00,40.9,38.2,29.93,NW,320,0.0,8.0,90,0.00,,---,0.00,VWS V14.00,2013-01-06 13:56:00,
2013-01-06 08:59:00,41.0,38.3,29.94,WNW,297,4.0,8.0,90,0.00,,---,0.00,VWS V14.00,2013-01-06 13:59:00,
2013-01-06 09:00:00,41.0,38.3,29.94,NE,51,5.0,9.0,90,0.00,,---,0.00,VWS V14.00,2013-01-06 14:00:00,
2013-01-06 09:02:00,41.0,38.3,29.93,North,6,3.0,5.0,90,0.00,,---,0.00,VWS V14.00,2013-01-06 14:02:00,
2013-01-06 09:05:00,41.0,38.3,29.93,NW,315,2.0,5.0,90,0.00,,---,0.00,VWS V14.00,2013-01-06 14:05:00,
2013-01-06 09:08:00,40.9,38.2,29.93,NW,309,2.0,5.0,90,0.00,,---,0.00,VWS V14.00,2013-01-06 14:08:00,
2013-01-06 09:11:00,41.0,38.0,29.93,NNE,13,1.0,5.0,89,0.00,,---,0.00,VWS V14.00,2013-01-06 14:11:00,
2013-01-06 09:14:00,41.0,38.3,29.93,NNE,27,1.0,5.0,90,0.00,,---,0.00,VWS V14.00,2013-01-06 14:14:00,
2013-01-06 09:17:00,41.0,38.0,29.93,NNW,348,1.0,5.0,89,0.00,,---,0.00,VWS V14.00,2013-01-06 14:17:00,
2013-01-06 09:20:00,41.0,38.0,29.93,NW,312,3.0,5.0,89,0.00,,---,0.00,VWS V14.00,2013-01-06 14:20:00,
2013-01-06 09:23:00,41.1,38.1,29.93,WNW,291,2.0,5.0,89,0.00,,---,0.00,VWS V14.00,2013-01-06 14:23:00,
2013-01-06 09:26:00,41.1,38.1,29.93,NW,322,1.0,5.0,89,0.00,,---,0.00,VWS V14.00,2013-01-06 14:26:00,
2013-01-06 09:29:00,41.2,38.2,29.94,NNW,329,0.0,5.0,89,0.00,,---,0.00,VWS V14.00,2013-01-06 14:29:00,
2013-01-06 09:30:00,41.2,38.2,29.94,West,277,1.0,5.0,89,0.00,,---,0.00,VWS V14.00,2013-01-06 14:30:00,
2013-01-06 09:32:00,41.2,38.2,29.93,West,276,0.0,2.0,89,0.00,,---,0.00,VWS V14.00,2013-01-06 14:32:00,
2013-01-06 09:35:00,41.3,38.3,29.94,WNW,284,0.0,2.0,89,0.00,,---,0.00,VWS V14.00,2013-01-06 14:35:00,
2013-01-06 09:38:00,41.5,38.5,29.93,WNW,284,0.0,2.0,89,0.00,,---,0.00,VWS V14.00,2013-01-06 14:38:00,
2013-01-06 09:41:00,41.6,38.3,29.94,WNW,284,0.0,2.0,88,0.00,,---,0.00,VWS V14.00,2013-01-06 14:41:00,
2013-01-06 09:44:00,41.7,38.4,29.93,WNW,284,0.0,2.0,88,0.00,,---,0.00,VWS V14.00,2013-01-06 14:44:00,
2013-01-06 09:47:00,42.0,38.7,29.94,WNW,284,0.0,2.0,88,0.00,,---,0.00,VWS V14.00,2013-01-06 14:47:00,
2013-01-06 09:50:00,42.4,39.1,29.93,WNW,284,0.0,2.0,88,0.00,,---,0.00,VWS V14.00,2013-01-06 14:50:00,
2013-01-06 09:53:00,42.9,39.3,29.93,SSE,156,0.0,2.0,87,0.00,,---,0.00,VWS V14.00,2013-01-06 14:53:00,
2013-01-06 09:56:00,43.4,39.8,29.93,SSE,156,0.0,2.0,87,0.00,,---,0.00,VWS V14.00,2013-01-06 14:56:00,
2013-01-06 09:59:00,44.0,40.1,29.93,SSE,156,0.0,2.0,86,0.00,,---,0.00,VWS V14.00,2013-01-06 14:59:00,
2013-01-06 10:00:00,44.1,40.2,29.93,SSE,157,0.0,2.0,86,0.00,,---,0.00,VWS V14.00,2013-01-06 15:00:00,
2013-01-06 10:02:00,44.5,40.0,29.93,South,172,2.0,2.0,84,0.00,,---,0.00,VWS V14.00,2013-01-06 15:02:00,
2013-01-06 10:05:00,44.9,39.8,29.93,ESE,117,0.0,4.0,82,0.00,,---,0.00,VWS V14.00,2013-01-06 15:05:00,
2013-01-06 10:08:00,45.1,39.9,29.93,ESE,104,0.0,4.0,82,0.00,,---,0.00,VWS V14.00,2013-01-06 15:08:00,
2013-01-06 10:11:00,45.5,40.0,29.93,ESE,104,0.0,4.0,81,0.00,,---,0.00,VWS V14.00,2013-01-06 15:11:00,
2013-01-06 10:14:00,45.9,40.1,29.93,East,96,0.0,4.0,80,0.00,,---,0.00,VWS V14.00,2013-01-06 15:14:00,
2013-01-06 10:17:00,46.0,39.9,29.93,ENE,73,2.0,5.0,79,0.00,,---,0.00,VWS V14.00,2013-01-06 15:17:00,
2013-01-06 10:20:00,45.7,39.2,29.93,NE,41,4.0,5.0,78,0.00,,---,0.00,VWS V14.00,2013-01-06 15:20:00,
2013-01-06 10:23:00,45.5,39.0,29.93,NW,307,1.0,6.0,78,0.00,,---,0.00,VWS V14.00,2013-01-06 15:23:00,
2013-01-06 10:26:00,45.6,39.2,29.93,NNW,341,5.0,9.0,78,0.00,,---,0.00,VWS V14.00,2013-01-06 15:26:00,
2013-01-06 10:29:00,45.8,39.3,29.93,North,350,4.0,9.0,78,0.00,,---,0.00,VWS V14.00,2013-01-06 15:29:00,
2013-01-06 10:30:00,45.9,39.4,29.93,NNE,15,3.0,9.0,78,0.00,,---,0.00,VWS V14.00,2013-01-06 15:30:00,
2013-01-06 10:32:00,46.1,39.3,29.93,NE,47,2.0,8.0,77,0.00,,---,0.00,VWS V14.00,2013-01-06 15:32:00,
2013-01-06 10:35:00,46.3,39.2,29.93,ENE,78,6.0,11.0,76,0.00,,---,0.00,VWS V14.00,2013-01-06 15:35:00,
2013-01-06 10:38:00,46.3,39.5,29.92,NNE,30,7.0,12.0,77,0.00,,---,0.00,VWS V14.00,2013-01-06 15:38:00,
2013-01-06 10:41:00,46.3,39.5,29.92,NW,326,2.0,12.0,77,0.00,,---,0.00,VWS V14.00,2013-01-06 15:41:00,
2013-01-06 10:44:00,46.5,39.7,29.92,North,8,6.0,12.0,77,0.00,,---,0.00,VWS V14.00,2013-01-06 15:44:00,
2013-01-06 10:47:00,46.8,40.0,29.92,ENE,74,7.0,12.0,77,0.00,,---,0.00,VWS V14.00,2013-01-06 15:47:00,
2013-01-06 10:50:00,46.9,39.4,29.92,NE,49,2.0,12.0,75,0.00,,---,0.00,VWS V14.00,2013-01-06 15:50:00,
2013-01-06 10:53:00,47.1,39.9,29.92,NNE,30,6.0,12.0,76,0.00,,---,0.00,VWS V14.00,2013-01-06 15:53:00,
2013-01-06 10:56:00,47.1,39.6,29.92,NE,44,5.0,12.0,75,0.00,,---,0.00,VWS V14.00,2013-01-06 15:56:00,
2013-01-06 10:59:00,47.1,39.2,29.92,NNW,329,2.0,12.0,74,0.00,,---,0.00,VWS V14.00,2013-01-06 15:59:00,
2013-01-06 11:00:00,47.1,39.6,29.92,NNE,24,1.0,12.0,75,0.00,,---,0.00,VWS V14.00,2013-01-06 16:00:00,
2013-01-06 11:02:00,47.2,39.3,29.92,ENE,77,5.0,10.0,74,0.00,,---,0.00,VWS V14.00,2013-01-06 16:02:00,
2013-01-06 11:05:00,47.3,39.8,29.92,ENE,59,4.0,10.0,75,0.00,,---,0.00,VWS V14.00,2013-01-06 16:05:00,
2013-01-06 11:08:00,47.3,39.5,29.92,NNE,25,4.0,10.0,74,0.00,,---,0.00,VWS V14.00,2013-01-06 16:08:00,
2013-01-06 11:11:00,47.2,38.7,29.92,NE,47,3.0,10.0,72,0.00,,---,0.00,VWS V14.00,2013-01-06 16:11:00,
2013-01-06 11:14:00,47.4,39.5,29.91,NE,49,2.0,10.0,74,0.00,,---,0.00,VWS V14.00,2013-01-06 16:14:00,
2013-01-06 11:17:00,47.6,39.4,29.91,NNE,26,1.0,10.0,73,0.00,,---,0.00,VWS V14.00,2013-01-06 16:17:00,
2013-01-06 11:20:00,47.8,38.9,29.91,NNE,23,6.0,10.0,71,0.00,,---,0.00,VWS V14.00,2013-01-06 16:20:00,
2013-01-06 11:23:00,48.0,39.1,29.91,East,90,1.0,10.0,71,0.00,,---,0.00,VWS V14.00,2013-01-06 16:23:00,
2013-01-06 11:26:00,48.2,38.9,29.91,NE,46,4.0,10.0,70,0.00,,---,0.00,VWS V14.00,2013-01-06 16:26:00,
2013-01-06 11:29:00,48.3,37.9,29.90,ESE,109,1.0,10.0,67,0.00,,---,0.00,VWS V14.00,2013-01-06 16:29:00,
2013-01-06 11:30:00,48.3,37.9,29.91,ESE,117,1.0,10.0,67,0.00,,---,0.00,VWS V14.00,2013-01-06 16:30:00,
2013-01-06 11:32:00,48.5,38.1,29.90,South,169,0.0,2.0,67,0.00,,---,0.00,VWS V14.00,2013-01-06 16:32:00,
2013-01-06 11:35:00,48.9,37.7,29.90,WSW,243,1.0,3.0,65,0.00,,---,0.00,VWS V14.00,2013-01-06 16:35:00,
2013-01-06 11:38:00,49.2,37.6,29.90,NE,53,1.0,3.0,64,0.00,,---,0.00,VWS V14.00,2013-01-06 16:38:00,
2013-01-06 11:41:00,49.2,37.6,29.90,SE,136,0.0,3.0,64,0.00,,---,0.00,VWS V14.00,2013-01-06 16:41:00,
2013-01-06 11:44:00,49.1,37.1,29.89,WSW,238,2.0,6.0,63,0.00,,---,0.00,VWS V14.00,2013-01-06 16:44:00,
2013-01-06 11:47:00,49.1,37.1,29.90,SW,228,2.0,6.0,63,0.00,,---,0.00,VWS V14.00,2013-01-06 16:47:00,
2013-01-06 11:50:00,49.2,37.2,29.89,South,169,4.0,9.0,63,0.00,,---,0.00,VWS V14.00,2013-01-06 16:50:00,
2013-01-06 11:53:00,49.3,36.8,29.89,SE,142,5.0,9.0,62,0.00,,---,0.00,VWS V14.00,2013-01-06 16:53:00,
2013-01-06 11:56:00,49.5,37.8,29.89,SSW,209,3.0,9.0,64,0.00,,---,0.00,VWS V14.00,2013-01-06 16:56:00,
2013-01-06 12:00:00,49.6,36.7,29.88,SW,218,4.0,9.0,61,0.00,,---,0.00,VWS V14.00,2013-01-06 17:00:00,
2013-01-06 12:05:00,49.2,36.3,29.88,SSW,211,8.0,8.0,61,0.00,,---,0.00,VWS V14.00,2013-01-06 17:05:00,
2013-01-06 12:14:00,49.5,36.6,29.87,South,183,2.0,8.0,61,0.00,,---,0.00,VWS V14.00,2013-01-06 17:14:00,
2013-01-06 12:20:00,49.6,35.9,29.86,SW,214,6.0,10.0,59,0.00,,---,0.00,VWS V14.00,2013-01-06 17:20:00,
2013-01-06 12:24:00,49.6,36.7,29.88,South,177,5.0,9.0,61,0.00,,---,0.00,VWS V14.00,2013-01-06 17:24:00,
2013-01-06 12:26:00,49.5,36.2,29.86,SSW,210,2.0,10.0,60,0.00,,---,0.00,VWS V14.00,2013-01-06 17:26:00,
2013-01-06 12:29:00,49.7,35.1,29.87,SW,225,3.0,10.0,57,0.00,,---,0.00,VWS V14.00,2013-01-06 17:29:00,
2013-01-06 12:30:00,49.7,35.1,29.87,SW,222,3.0,10.0,57,0.00,,---,0.00,VWS V14.00,2013-01-06 17:30:00,
2013-01-06 12:32:00,49.7,36.0,29.86,South,181,5.0,8.0,59,0.00,,---,0.00,VWS V14.00,2013-01-06 17:32:00,
2013-01-06 12:33:00,49.3,36.8,29.87,West,264,3.0,8.0,62,0.00,,---,0.00,VWS V14.00,2013-01-06 17:33:00,
2013-01-06 12:36:00,49.8,35.6,29.86,SSE,148,7.0,8.0,58,0.00,,---,0.00,VWS V14.00,2013-01-06 17:36:00,
2013-01-06 12:39:00,49.8,35.6,29.86,South,169,4.0,8.0,58,0.00,,---,0.00,VWS V14.00,2013-01-06 17:39:00,
2013-01-06 12:42:00,49.7,36.4,29.87,South,186,4.0,10.0,60,0.00,,---,0.00,VWS V14.00,2013-01-06 17:42:00,
2013-01-06 12:45:00,50.2,35.6,29.85,SSW,199,3.0,8.0,57,0.00,,---,0.00,VWS V14.00,2013-01-06 17:45:00,
2013-01-06 12:48:00,49.4,36.5,29.86,SSE,160,4.0,10.0,61,0.00,,---,0.00,VWS V14.00,2013-01-06 17:48:00,
2013-01-06 12:51:00,50.4,33.9,29.84,West,260,4.0,10.0,53,0.00,,---,0.00,VWS V14.00,2013-01-06 17:51:00,
2013-01-06 12:54:00,50.2,34.2,29.84,SW,225,7.0,10.0,54,0.00,,---,0.00,VWS V14.00,2013-01-06 17:54:00,
2013-01-06 12:57:00,50.2,35.1,29.84,SE,139,6.0,10.0,56,0.00,,---,0.00,VWS V14.00,2013-01-06 17:57:00,
2013-01-06 13:00:00,50.3,35.2,29.84,SE,142,5.0,10.0,56,0.00,,---,0.00,VWS V14.00,2013-01-06 18:00:00,
2013-01-06 13:03:00,50.3,33.8,29.84,SE,136,6.0,7.0,53,0.00,,---,0.00,VWS V14.00,2013-01-06 18:03:00,
2013-01-06 13:06:00,50.3,34.8,29.84,SW,232,5.0,10.0,55,0.00,,---,0.00,VWS V14.00,2013-01-06 18:06:00,
2013-01-06 13:09:00,50.3,35.2,29.84,SE,139,6.0,10.0,56,0.00,,---,0.00,VWS V14.00,2013-01-06 18:09:00,
2013-01-06 13:12:00,50.5,34.5,29.84,SSE,160,6.0,10.0,54,0.00,,---,0.00,VWS V14.00,2013-01-06 18:12:00,
2013-01-06 13:15:00,50.6,34.1,29.83,South,169,6.0,10.0,53,0.00,,---,0.00,VWS V14.00,2013-01-06 18:15:00,
2013-01-06 13:18:00,50.6,34.1,29.84,SW,224,0.0,10.0,53,0.00,,---,0.00,VWS V14.00,2013-01-06 18:18:00,
2013-01-06 13:21:00,50.8,32.8,29.83,SSW,195,2.0,10.0,50,0.00,,---,0.00,VWS V14.00,2013-01-06 18:21:00,
2013-01-06 13:24:00,51.0,34.5,29.83,SSE,165,5.0,10.0,53,0.00,,---,0.00,VWS V14.00,2013-01-06 18:24:00,
2013-01-06 13:27:00,51.2,33.7,29.83,ESE,118,2.0,10.0,51,0.00,,---,0.00,VWS V14.00,2013-01-06 18:27:00,
2013-01-06 13:30:00,51.5,34.5,29.83,SW,226,3.0,10.0,52,0.00,,---,0.00,VWS V14.00,2013-01-06 18:30:00,
2013-01-06 13:33:00,51.7,33.7,29.83,SE,132,7.0,7.0,50,0.00,,---,0.00,VWS V14.00,2013-01-06 18:33:00,
2013-01-06 13:36:00,51.7,33.2,29.83,SSE,160,7.0,9.0,49,0.00,,---,0.00,VWS V14.00,2013-01-06 18:36:00,
2013-01-06 13:39:00,51.7,32.7,29.83,SE,132,5.0,9.0,48,0.00,,---,0.00,VWS V14.00,2013-01-06 18:39:00,
2013-01-06 13:42:00,51.8,33.3,29.83,SSE,153,5.0,9.0,49,0.00,,---,0.00,VWS V14.00,2013-01-06 18:42:00,
2013-01-06 13:45:00,51.7,33.2,29.82,SSE,162,5.0,9.0,49,0.00,,---,0.00,VWS V14.00,2013-01-06 18:45:00,
2013-01-06 13:48:00,51.7,32.1,29.83,SSW,197,6.0,9.0,47,0.00,,---,0.00,VWS V14.00,2013-01-06 18:48:00,
2013-01-06 13:51:00,51.7,31.6,29.82,SSE,163,5.0,9.0,46,0.00,,---,0.00,VWS V14.00,2013-01-06 18:51:00,
2013-01-06 13:54:00,51.9,32.8,29.82,South,179,3.0,9.0,48,0.00,,---,0.00,VWS V14.00,2013-01-06 18:54:00,
2013-01-06 13:57:00,52.1,33.0,29.82,SSE,155,4.0,9.0,48,0.00,,---,0.00,VWS V14.00,2013-01-06 18:57:00,
2013-01-06 14:00:00,52.3,32.7,29.82,SE,136,3.0,9.0,47,0.00,,---,0.00,VWS V14.00,2013-01-06 19:00:00,
2013-01-06 14:03:00,52.5,32.9,29.82,South,169,1.0,5.0,47,0.00,,---,0.00,VWS V14.00,2013-01-06 19:03:00,
2013-01-06 14:06:00,52.9,32.7,29.82,SSE,167,6.0,6.0,46,0.00,,---,0.00,VWS V14.00,2013-01-06 19:06:00,
2013-01-06 14:09:00,53.1,32.9,29.82,SSE,148,4.0,7.0,46,0.00,,---,0.00,VWS V14.00,2013-01-06 19:09:00,
2013-01-06 14:12:00,52.9,32.2,29.82,SSE,148,3.0,7.0,45,0.00,,---,0.00,VWS V14.00,2013-01-06 19:12:00,
2013-01-06 14:15:00,52.9,31.6,29.81,ESE,105,7.0,8.0,44,0.00,,---,0.00,VWS V14.00,2013-01-06 19:15:00,
2013-01-06 14:21:00,53.1,31.8,29.81,SW,214,0.0,8.0,44,0.00,,---,0.00,VWS V14.00,2013-01-06 19:21:00,
2013-01-06 14:24:00,53.4,33.2,29.81,SE,134,3.0,8.0,46,0.00,,---,0.00,VWS V14.00,2013-01-06 19:24:00,
2013-01-06 14:30:00,53.1,32.3,29.82,SE,143,3.0,8.0,45,0.00,,---,0.00,VWS V14.00,2013-01-06 19:30:00,
2013-01-06 14:33:00,52.7,32.5,29.81,SSE,162,4.0,7.0,46,0.00,,---,0.00,VWS V14.00,2013-01-06 19:33:00,
2013-01-06 14:40:00,52.6,33.0,29.81,SSE,159,6.0,7.0,47,0.00,,---,0.00,VWS V14.00,2013-01-06 19:40:00,
2013-01-06 14:46:00,52.7,32.5,29.82,SSW,203,6.0,7.0,46,0.00,,---,0.00,VWS V14.00,2013-01-06 19:46:00,
2013-01-06 14:49:00,52.6,32.4,29.82,SW,225,1.0,8.0,46,0.00,,---,0.00,VWS V14.00,2013-01-06 19:49:00,
2013-01-06 14:52:00,52.8,33.7,29.82,SW,232,3.0,8.0,48,0.00,,---,0.00,VWS V14.00,2013-01-06 19:52:00,
2013-01-06 14:55:00,53.1,34.5,29.82,West,264,0.0,8.0,49,0.00,,---,0.00,VWS V14.00,2013-01-06 19:55:00,
2013-01-06 14:58:00,53.3,34.1,29.82,ESE,112,1.0,8.0,48,0.00,,---,0.00,VWS V14.00,2013-01-06 19:58:00,
2013-01-06 15:00:00,53.4,34.2,29.82,SE,133,1.0,8.0,48,0.00,,---,0.00,VWS V14.00,2013-01-06 20:00:00,
2013-01-06 15:01:00,53.6,34.4,29.82,SE,136,3.0,3.0,48,0.00,,---,0.00,VWS V14.00,2013-01-06 20:01:00,
2013-01-06 15:04:00,53.5,33.2,29.82,SE,136,3.0,6.0,46,0.00,,---,0.00,VWS V14.00,2013-01-06 20:04:00,
2013-01-06 15:07:00,53.1,33.4,29.82,South,170,4.0,8.0,47,0.00,,---,0.00,VWS V14.00,2013-01-06 20:07:00,
2013-01-06 15:10:00,52.9,34.3,29.82,ESE,110,2.0,8.0,49,0.00,,---,0.00,VWS V14.00,2013-01-06 20:10:00,
2013-01-06 15:13:00,52.3,33.2,29.82,South,169,5.0,8.0,48,0.00,,---,0.00,VWS V14.00,2013-01-06 20:13:00,
2013-01-06 15:16:00,52.0,32.9,29.82,SW,214,1.0,8.0,48,0.00,,---,0.00,VWS V14.00,2013-01-06 20:16:00,
2013-01-06 15:19:00,52.0,30.2,29.83,WSW,246,0.0,8.0,43,0.00,,---,0.00,VWS V14.00,2013-01-06 20:19:00,
2013-01-06 15:22:00,52.3,28.7,29.83,NE,53,7.0,12.0,40,0.00,,---,0.00,VWS V14.00,2013-01-06 20:22:00,
2013-01-06 15:25:00,52.5,28.3,29.83,NNW,345,2.0,12.0,39,0.00,,---,0.00,VWS V14.00,2013-01-06 20:25:00,
2013-01-06 15:28:00,52.6,30.2,29.83,NE,37,2.0,12.0,42,0.00,,---,0.00,VWS V14.00,2013-01-06 20:28:00,
2013-01-06 15:30:00,52.5,30.7,29.83,North,8,0.0,12.0,43,0.00,,---,0.00,VWS V14.00,2013-01-06 20:30:00,
2013-01-06 15:31:00,52.5,31.2,29.83,ENE,68,5.0,7.0,44,0.00,,---,0.00,VWS V14.00,2013-01-06 20:31:00,
2013-01-06 15:34:00,52.5,30.7,29.83,NNE,19,3.0,7.0,43,0.00,,---,0.00,VWS V14.00,2013-01-06 20:34:00,
2013-01-06 15:37:00,52.5,29.5,29.83,NNW,335,2.0,7.0,41,0.00,,---,0.00,VWS V14.00,2013-01-06 20:37:00,
2013-01-06 15:40:00,52.4,29.4,29.83,ENE,63,5.0,9.0,41,0.00,,---,0.00,VWS V14.00,2013-01-06 20:40:00,
2013-01-06 15:43:00,52.3,28.1,29.84,NNW,339,7.0,10.0,39,0.00,,---,0.00,VWS V14.00,2013-01-06 20:43:00,
2013-01-06 15:46:00,52.2,29.8,29.83,NNE,19,5.0,10.0,42,0.00,,---,0.00,VWS V14.00,2013-01-06 20:46:00,
2013-01-06 15:49:00,52.1,31.4,29.83,NE,51,5.0,10.0,45,0.00,,---,0.00,VWS V14.00,2013-01-06 20:49:00,
2013-01-06 15:52:00,51.8,32.2,29.83,ENE,60,3.0,10.0,47,0.00,,---,0.00,VWS V14.00,2013-01-06 20:52:00,
2013-01-06 15:55:00,51.6,32.6,29.83,East,96,2.0,10.0,48,0.00,,---,0.00,VWS V14.00,2013-01-06 20:55:00,
2013-01-06 15:58:00,51.3,31.8,29.83,SE,144,3.0,10.0,47,0.00,,---,0.00,VWS V14.00,2013-01-06 20:58:00,
2013-01-06 16:00:00,51.0,33.5,29.83,SE,126,2.0,10.0,51,0.00,,---,0.00,VWS V14.00,2013-01-06 21:00:00,
2013-01-06 16:01:00,50.5,34.0,29.83,ESE,115,1.0,3.0,53,0.00,,---,0.00,VWS V14.00,2013-01-06 21:01:00,
2013-01-06 16:04:00,49.7,31.8,29.83,WSW,246,1.0,7.0,50,0.00,,---,0.00,VWS V14.00,2013-01-06 21:04:00,
2013-01-06 16:07:00,49.6,32.7,29.84,SSE,150,3.0,7.0,52,0.00,,---,0.00,VWS V14.00,2013-01-06 21:07:00,
2013-01-06 16:10:00,48.9,33.9,29.83,SE,135,4.0,7.0,56,0.00,,---,0.00,VWS V14.00,2013-01-06 21:10:00,
2013-01-06 16:13:00,48.4,33.9,29.84,South,169,3.0,7.0,57,0.00,,---,0.00,VWS V14.00,2013-01-06 21:13:00,
2013-01-06 16:16:00,48.0,33.5,29.83,SSW,198,1.0,7.0,57,0.00,,---,0.00,VWS V14.00,2013-01-06 21:16:00,
2013-01-06 16:19:00,47.7,33.7,29.83,SE,129,2.0,7.0,58,0.00,,---,0.00,VWS V14.00,2013-01-06 21:19:00,
2013-01-06 16:22:00,47.5,33.0,29.83,ENE,73,3.0,7.0,57,0.00,,---,0.00,VWS V14.00,2013-01-06 21:22:00,
2013-01-06 16:26:00,47.4,32.5,29.83,ENE,57,5.0,7.0,56,0.00,,---,0.00,VWS V14.00,2013-01-06 21:26:00,
2013-01-06 16:29:00,47.5,33.0,29.83,SSW,208,2.0,7.0,57,0.00,,---,0.00,VWS V14.00,2013-01-06 21:29:00,
2013-01-06 16:30:00,47.5,33.9,29.84,SE,127,2.0,7.0,59,0.00,,---,0.00,VWS V14.00,2013-01-06 21:30:00,
2013-01-06 16:32:00,47.2,33.6,29.83,SSE,151,5.0,6.0,59,0.00,,---,0.00,VWS V14.00,2013-01-06 21:32:00,
2013-01-06 16:35:00,47.1,33.1,29.83,SSE,158,3.0,6.0,58,0.00,,---,0.00,VWS V14.00,2013-01-06 21:35:00,
2013-01-06 16:38:00,46.7,33.6,29.84,SE,143,2.0,6.0,60,0.00,,---,0.00,VWS V14.00,2013-01-06 21:38:00,
2013-01-06 16:41:00,46.2,33.5,29.84,South,173,2.0,6.0,61,0.00,,---,0.00,VWS V14.00,2013-01-06 21:41:00,
2013-01-06 16:44:00,45.8,33.5,29.84,SE,128,2.0,6.0,62,0.00,,---,0.00,VWS V14.00,2013-01-06 21:44:00,
2013-01-06 16:47:00,45.6,32.9,29.84,SSE,158,2.0,6.0,61,0.00,,---,0.00,VWS V14.00,2013-01-06 21:47:00,
2013-01-06 16:50:00,45.3,33.1,29.84,East,79,3.0,6.0,62,0.00,,---,0.00,VWS V14.00,2013-01-06 21:50:00,
2013-01-06 16:53:00,45.2,33.8,29.84,SE,124,2.0,6.0,64,0.00,,---,0.00,VWS V14.00,2013-01-06 21:53:00,
2013-01-06 16:56:00,44.8,33.4,29.84,NE,43,3.0,6.0,64,0.00,,---,0.00,VWS V14.00,2013-01-06 21:56:00,
2013-01-06 16:59:00,44.8,33.4,29.84,ESE,117,3.0,6.0,64,0.00,,---,0.00,VWS V14.00,2013-01-06 21:59:00,
2013-01-06 17:00:00,44.8,33.4,29.85,SE,127,1.0,6.0,64,0.00,,---,0.00,VWS V14.00,2013-01-06 22:00:00,
2013-01-06 17:02:00,44.5,33.5,29.84,SE,133,2.0,2.0,65,0.00,,---,0.00,VWS V14.00,2013-01-06 22:02:00,
2013-01-06 17:05:00,44.1,33.5,29.85,ESE,115,3.0,3.0,66,0.00,,---,0.00,VWS V14.00,2013-01-06 22:05:00,
2013-01-06 17:08:00,43.7,33.5,29.84,ESE,104,4.0,5.0,67,0.00,,---,0.00,VWS V14.00,2013-01-06 22:08:00,
2013-01-06 17:11:00,43.6,33.4,29.85,ENE,77,3.0,5.0,67,0.00,,---,0.00,VWS V14.00,2013-01-06 22:11:00,
2013-01-06 17:14:00,43.6,33.8,29.85,East,101,2.0,5.0,68,0.00,,---,0.00,VWS V14.00,2013-01-06 22:14:00,
2013-01-06 17:17:00,43.5,33.7,29.85,ESE,110,3.0,6.0,68,0.00,,---,0.00,VWS V14.00,2013-01-06 22:17:00,
2013-01-06 17:20:00,43.3,33.5,29.85,East,84,3.0,6.0,68,0.00,,---,0.00,VWS V14.00,2013-01-06 22:20:00,
2013-01-06 17:23:00,43.0,33.2,29.85,SE,145,0.0,6.0,68,0.00,,---,0.00,VWS V14.00,2013-01-06 22:23:00,
2013-01-06 17:26:00,42.9,34.2,29.85,NW,326,5.0,8.0,71,0.00,,---,0.00,VWS V14.00,2013-01-06 22:26:00,
2013-01-06 17:29:00,43.1,34.3,29.85,ESE,103,4.0,8.0,71,0.00,,---,0.00,VWS V14.00,2013-01-06 22:29:00,
2013-01-06 17:30:00,43.2,34.5,29.85,East,85,7.0,8.0,71,0.00,,---,0.00,VWS V14.00,2013-01-06 22:30:00,
2013-01-06 17:32:00,43.4,34.3,29.85,NNW,338,9.0,9.0,70,0.00,,---,0.00,VWS V14.00,2013-01-06 22:32:00,
2013-01-06 17:35:00,43.6,34.5,29.85,North,11,2.0,11.0,70,0.00,,---,0.00,VWS V14.00,2013-01-06 22:35:00,
2013-01-06 17:38:00,43.6,34.5,29.85,NNW,333,0.0,11.0,70,0.00,,---,0.00,VWS V14.00,2013-01-06 22:38:00,
2013-01-06 17:41:00,43.5,34.4,29.85,East,82,2.0,12.0,70,0.00,,---,0.00,VWS V14.00,2013-01-06 22:41:00,
2013-01-06 17:44:00,43.5,34.4,29.86,NNW,330,6.0,12.0,70,0.00,,---,0.00,VWS V14.00,2013-01-06 22:44:00,
2013-01-06 17:47:00,43.5,34.4,29.86,NNW,340,4.0,12.0,70,0.00,,---,0.00,VWS V14.00,2013-01-06 22:47:00,
2013-01-06 17:50:00,43.4,34.3,29.86,NW,316,5.0,13.0,70,0.00,,---,0.00,VWS V14.00,2013-01-06 22:50:00,
2013-01-06 17:53:00,43.3,34.2,29.86,NNW,343,7.0,13.0,70,0.00,,---,0.00,VWS V14.00,2013-01-06 22:53:00,
2013-01-06 17:56:00,43.2,34.1,29.86,NNW,340,7.0,13.0,70,0.00,,---,0.00,VWS V14.00,2013-01-06 22:56:00,
2013-01-06 17:59:00,43.1,34.0,29.86,NE,49,10.0,16.0,70,0.00,,---,0.00,VWS V14.00,2013-01-06 22:59:00,
2013-01-06 18:00:00,43.1,34.0,29.86,NNW,345,6.0,16.0,70,0.00,,---,0.00,VWS V14.00,2013-01-06 23:00:00,
2013-01-06 18:02:00,43.0,33.9,29.86,North,350,10.0,17.0,70,0.00,,---,0.00,VWS V14.00,2013-01-06 23:02:00,
2013-01-06 18:05:00,42.9,33.8,29.87,North,352,12.0,17.0,70,0.00,,---,0.00,VWS V14.00,2013-01-06 23:05:00,
2013-01-06 18:08:00,42.8,34.1,29.87,NNW,347,8.0,17.0,71,0.00,,---,0.00,VWS V14.00,2013-01-06 23:08:00,
2013-01-06 18:11:00,42.7,34.0,29.87,NE,44,15.0,17.0,71,0.00,,---,0.00,VWS V14.00,2013-01-06 23:11:00,
2013-01-06 18:14:00,42.6,33.9,29.88,NW,314,9.0,17.0,71,0.00,,---,0.00,VWS V14.00,2013-01-06 23:14:00,
2013-01-06 18:17:00,42.4,33.7,29.88,North,360,6.0,17.0,71,0.00,,---,0.00,VWS V14.00,2013-01-06 23:17:00,
2013-01-06 18:20:00,42.3,33.6,29.89,NNW,342,9.0,17.0,71,0.00,,---,0.00,VWS V14.00,2013-01-06 23:20:00,
2013-01-06 18:23:00,42.2,33.8,29.89,NNE,13,11.0,17.0,72,0.00,,---,0.00,VWS V14.00,2013-01-06 23:23:00,
2013-01-06 18:26:00,42.0,33.6,29.89,NNW,343,11.0,17.0,72,0.00,,---,0.00,VWS V14.00,2013-01-06 23:26:00,
2013-01-06 18:29:00,41.8,33.5,29.89,NNE,30,5.0,17.0,72,0.00,,---,0.00,VWS V14.00,2013-01-06 23:29:00,
2013-01-06 18:30:00,41.8,33.8,29.89,ENE,64,14.0,17.0,73,0.00,,---,0.00,VWS V14.00,2013-01-06 23:30:00,
2013-01-06 18:32:00,41.7,33.7,29.89,NE,34,8.0,16.0,73,0.00,,---,0.00,VWS V14.00,2013-01-06 23:32:00,
2013-01-06 18:35:00,41.5,33.5,29.90,NNW,335,8.0,16.0,73,0.00,,---,0.00,VWS V14.00,2013-01-06 23:35:00,
2013-01-06 18:38:00,41.4,33.4,29.90,North,9,10.0,16.0,73,0.00,,---,0.00,VWS V14.00,2013-01-06 23:38:00,
2013-01-06 18:41:00,41.2,33.2,29.90,WNW,297,5.0,16.0,73,0.00,,---,0.00,VWS V14.00,2013-01-06 23:41:00,
2013-01-06 18:44:00,41.1,33.5,29.90,NNW,340,11.0,17.0,74,0.00,,---,0.00,VWS V14.00,2013-01-06 23:44:00,
2013-01-06 18:47:00,41.0,33.4,29.90,NNW,330,7.0,19.0,74,0.00,,---,0.00,VWS V14.00,2013-01-06 23:47:00,
2013-01-06 18:50:00,40.9,33.3,29.91,North,354,12.0,19.0,74,0.00,,---,0.00,VWS V14.00,2013-01-06 23:50:00,
2013-01-06 18:53:00,40.8,33.2,29.91,NNW,345,8.0,22.0,74,0.00,,---,0.00,VWS V14.00,2013-01-06 23:53:00,
2013-01-06 18:56:00,40.7,33.1,29.91,North,353,10.0,22.0,74,0.00,,---,0.00,VWS V14.00,2013-01-06 23:56:00,
2013-01-06 18:59:00,40.7,32.7,29.91,NW,315,12.0,22.0,73,0.00,,---,0.00,VWS V14.00,2013-01-06 23:59:00,
2013-01-06 19:00:00,40.7,32.7,29.91,NNW,345,10.0,22.0,73,0.00,,---,0.00,VWS V14.00,2013-01-07 00:00:00,
2013-01-06 19:02:00,40.6,32.6,29.91,NE,56,9.0,15.0,73,0.00,,---,0.00,VWS V14.00,2013-01-07 00:02:00,
2013-01-06 19:05:00,40.6,32.6,29.91,NW,316,7.0,17.0,73,0.00,,---,0.00,VWS V14.00,2013-01-07 00:05:00,
2013-01-06 19:08:00,40.5,32.2,29.91,NE,37,11.0,17.0,72,0.00,,---,0.00,VWS V14.00,2013-01-07 00:08:00,
2013-01-06 19:11:00,40.4,32.1,29.91,NW,323,5.0,17.0,72,0.00,,---,0.00,VWS V14.00,2013-01-07 00:11:00,
2013-01-06 19:14:00,40.3,32.0,29.91,NW,326,7.0,17.0,72,0.00,,---,0.00,VWS V14.00,2013-01-07 00:14:00,
2013-01-06 19:17:00,40.3,31.7,29.91,ENE,73,13.0,17.0,71,0.00,,---,0.00,VWS V14.00,2013-01-07 00:17:00,
2013-01-06 19:20:00,40.3,31.3,29.92,NNW,340,12.0,21.0,70,0.00,,---,0.00,VWS V14.00,2013-01-07 00:20:00,
2013-01-06 19:23:00,40.2,31.2,29.92,NNW,340,14.0,21.0,70,0.00,,---,0.00,VWS V14.00,2013-01-07 00:23:00,
2013-01-06 19:26:00,40.1,31.5,29.92,WNW,300,9.0,21.0,71,0.00,,---,0.00,VWS V14.00,2013-01-07 00:26:00,
2013-01-06 19:29:00,40.2,31.2,29.92,NNW,340,7.0,21.0,70,0.00,,---,0.00,VWS V14.00,2013-01-07 00:29:00,
2013-01-06 19:30:00,40.2,31.2,29.92,NNW,328,8.0,21.0,70,0.00,,---,0.00,VWS V14.00,2013-01-07 00:30:00,
2013-01-06 19:32:00,40.2,31.2,29.92,NNW,339,7.0,14.0,70,0.00,,---,0.00,VWS V14.00,2013-01-07 00:32:00,
2013-01-06 19:35:00,40.1,31.1,29.92,NW,322,7.0,14.0,70,0.00,,---,0.00,VWS V14.00,2013-01-07 00:35:00,
2013-01-06 19:38:00,40.1,31.1,29.92,NNW,343,5.0,14.0,70,0.00,,---,0.00,VWS V14.00,2013-01-07 00:38:00,
2013-01-06 19:41:00,40.0,31.0,29.92,North,9,9.0,14.0,70,0.00,,---,0.00,VWS V14.00,2013-01-07 00:41:00,
2013-01-06 19:44:00,40.0,30.7,29.92,NNW,338,4.0,14.0,69,0.00,,---,0.00,VWS V14.00,2013-01-07 00:44:00,
2013-01-06 19:47:00,40.0,30.7,29.92,North,350,7.0,14.0,69,0.00,,---,0.00,VWS V14.00,2013-01-07 00:47:00,
2013-01-06 19:50:00,39.9,30.6,29.92,NW,320,5.0,14.0,69,0.00,,---,0.00,VWS V14.00,2013-01-07 00:50:00,
2013-01-06 19:53:00,39.8,30.8,29.92,NNW,328,5.0,14.0,70,0.00,,---,0.00,VWS V14.00,2013-01-07 00:53:00,
2013-01-06 19:56:00,39.7,30.7,29.92,NNW,330,6.0,14.0,70,0.00,,---,0.00,VWS V14.00,2013-01-07 00:56:00,
2013-01-06 19:59:00,39.7,30.7,29.92,NNW,333,6.0,14.0,70,0.00,,---,0.00,VWS V14.00,2013-01-07 00:59:00,
2013-01-06 20:00:00,39.7,30.7,29.92,NNE,33,8.0,14.0,70,0.00,,---,0.00,VWS V14.00,2013-01-07 01:00:00,
2013-01-06 20:02:00,39.7,30.7,29.92,NNW,337,5.0,13.0,70,0.00,,---,0.00,VWS V14.00,2013-01-07 01:02:00,
2013-01-06 20:05:00,39.7,30.7,29.92,NNE,25,9.0,13.0,70,0.00,,---,0.00,VWS V14.00,2013-01-07 01:05:00,
2013-01-06 20:08:00,39.7,30.7,29.92,NNE,18,10.0,13.0,70,0.00,,---,0.00,VWS V14.00,2013-01-07 01:08:00,
2013-01-06 20:11:00,39.7,30.7,29.92,NE,56,11.0,15.0,70,0.00,,---,0.00,VWS V14.00,2013-01-07 01:11:00,
2013-01-06 20:14:00,39.7,30.7,29.92,NNW,345,9.0,15.0,70,0.00,,---,0.00,VWS V14.00,2013-01-07 01:14:00,
2013-01-06 20:17:00,39.7,30.7,29.92,NNW,333,9.0,16.0,70,0.00,,---,0.00,VWS V14.00,2013-01-07 01:17:00,
2013-01-06 20:20:00,39.7,30.7,29.92,NW,318,8.0,16.0,70,0.00,,---,0.00,VWS V14.00,2013-01-07 01:20:00,
2013-01-06 20:23:00,39.7,30.7,29.92,NNW,330,10.0,16.0,70,0.00,,---,0.00,VWS V14.00,2013-01-07 01:23:00,
2013-01-06 20:26:00,39.7,30.7,29.93,NNW,330,9.0,16.0,70,0.00,,---,0.00,VWS V14.00,2013-01-07 01:26:00,
2013-01-06 20:29:00,39.8,30.8,29.93,NW,320,5.0,16.0,70,0.00,,---,0.00,VWS V14.00,2013-01-07 01:29:00,
2013-01-06 20:30:00,39.8,30.8,29.93,NNW,339,6.0,16.0,70,0.00,,---,0.00,VWS V14.00,2013-01-07 01:30:00,
2013-01-06 20:32:00,39.8,30.5,29.93,NNW,342,8.0,13.0,69,0.00,,---,0.00,VWS V14.00,2013-01-07 01:32:00,
2013-01-06 20:35:00,39.8,30.5,29.93,North,352,5.0,15.0,69,0.00,,---,0.00,VWS V14.00,2013-01-07 01:35:00,
2013-01-06 20:38:00,39.7,30.4,29.93,NNW,340,4.0,15.0,69,0.00,,---,0.00,VWS V14.00,2013-01-07 01:38:00,
2013-01-06 20:44:00,39.7,30.4,29.94,NNW,338,7.0,15.0,69,0.00,,---,0.00,VWS V14.00,2013-01-07 01:44:00,
2013-01-06 20:47:00,39.8,30.5,29.94,NW,323,2.0,15.0,69,0.00,,---,0.00,VWS V14.00,2013-01-07 01:47:00,
2013-01-06 20:50:00,39.8,30.5,29.94,NNW,330,6.0,15.0,69,0.00,,---,0.00,VWS V14.00,2013-01-07 01:50:00,
2013-01-06 20:53:00,39.8,30.5,29.93,NNW,339,3.0,15.0,69,0.00,,---,0.00,VWS V14.00,2013-01-07 01:53:00,
2013-01-06 20:56:00,39.7,30.4,29.94,WNW,300,3.0,15.0,69,0.00,,---,0.00,VWS V14.00,2013-01-07 01:56:00,
2013-01-06 21:00:00,39.6,30.3,29.94,NW,318,4.0,15.0,69,0.00,,---,0.00,VWS V14.00,2013-01-07 02:00:00,
2013-01-06 21:02:00,39.7,30.0,29.94,NW,323,5.0,10.0,68,0.00,,---,0.00,VWS V14.00,2013-01-07 02:02:00,
2013-01-06 21:06:00,39.6,30.6,29.93,NNE,13,5.0,15.0,70,0.00,,---,0.00,VWS V14.00,2013-01-07 02:06:00,
2013-01-06 21:09:00,39.7,30.0,29.94,NW,323,4.0,10.0,68,0.00,,---,0.00,VWS V14.00,2013-01-07 02:09:00,
2013-01-06 21:12:00,39.8,30.1,29.95,NNW,335,4.0,10.0,68,0.00,,---,0.00,VWS V14.00,2013-01-07 02:12:00,
2013-01-06 21:15:00,39.8,29.8,29.95,WNW,299,2.0,10.0,67,0.00,,---,0.00,VWS V14.00,2013-01-07 02:15:00,
2013-01-06 21:18:00,39.9,29.9,29.95,NW,315,3.0,10.0,67,0.00,,---,0.00,VWS V14.00,2013-01-07 02:18:00,
2013-01-06 21:21:00,39.8,29.8,29.94,NNW,342,2.0,10.0,67,0.00,,---,0.00,VWS V14.00,2013-01-07 02:21:00,
2013-01-06 21:24:00,39.6,30.3,29.94,NW,321,4.0,15.0,69,0.00,,---,0.00,VWS V14.00,2013-01-07 02:24:00,
2013-01-06 21:27:00,39.7,29.7,29.94,NNE,13,11.0,11.0,67,0.00,,---,0.00,VWS V14.00,2013-01-07 02:27:00,
2013-01-06 21:30:00,39.9,29.9,29.95,NW,325,5.0,11.0,67,0.00,,---,0.00,VWS V14.00,2013-01-07 02:30:00,
2013-01-06 21:33:00,40.0,29.9,29.94,NNW,335,5.0,8.0,67,0.00,,---,0.00,VWS V14.00,2013-01-07 02:33:00,
2013-01-06 21:36:00,40.1,30.0,29.95,NNE,15,8.0,11.0,67,0.00,,---,0.00,VWS V14.00,2013-01-07 02:36:00,
2013-01-06 21:39:00,40.1,30.0,29.95,NNW,335,9.0,11.0,67,0.00,,---,0.00,VWS V14.00,2013-01-07 02:39:00,
2013-01-06 21:42:00,40.2,30.1,29.95,NNW,330,5.0,11.0,67,0.00,,---,0.00,VWS V14.00,2013-01-07 02:42:00,
2013-01-06 21:45:00,40.2,30.1,29.95,NW,307,2.0,11.0,67,0.00,,---,0.00,VWS V14.00,2013-01-07 02:45:00,
2013-01-06 21:48:00,40.3,30.2,29.94,NW,323,4.0,11.0,67,0.00,,---,0.00,VWS V14.00,2013-01-07 02:48:00,
2013-01-06 21:51:00,40.3,30.2,29.95,NNW,340,4.0,11.0,67,0.00,,---,0.00,VWS V14.00,2013-01-07 02:51:00,
2013-01-06 21:54:00,40.3,30.2,29.95,NNW,335,5.0,11.0,67,0.00,,---,0.00,VWS V14.00,2013-01-07 02:54:00,
2013-01-06 21:57:00,40.3,30.2,29.95,NNW,334,7.0,11.0,67,0.00,,---,0.00,VWS V14.00,2013-01-07 02:57:00,
2013-01-06 22:00:00,40.4,30.3,29.95,NW,312,4.0,12.0,67,0.00,,---,0.00,VWS V14.00,2013-01-07 03:00:00,
2013-01-06 22:03:00,40.5,30.0,29.96,WNW,287,2.0,9.0,66,0.00,,---,0.00,VWS V14.00,2013-01-07 03:03:00,
2013-01-06 22:06:00,40.5,30.4,29.96,West,275,4.0,9.0,67,0.00,,---,0.00,VWS V14.00,2013-01-07 03:06:00,
2013-01-06 22:09:00,40.6,30.1,29.96,NNW,338,4.0,17.0,66,0.00,,---,0.00,VWS V14.00,2013-01-07 03:09:00,
2013-01-06 22:12:00,40.6,29.8,29.97,NNW,330,5.0,17.0,65,0.00,,---,0.00,VWS V14.00,2013-01-07 03:12:00,
2013-01-06 22:15:00,40.6,30.1,29.96,North,356,5.0,17.0,66,0.00,,---,0.00,VWS V14.00,2013-01-07 03:15:00,
2013-01-06 22:18:00,40.4,30.0,29.96,NNE,12,4.0,17.0,66,0.00,,---,0.00,VWS V14.00,2013-01-07 03:18:00,
2013-01-06 22:21:00,40.4,30.0,29.97,NNW,337,12.0,17.0,66,0.00,,---,0.00,VWS V14.00,2013-01-07 03:21:00,
2013-01-06 22:24:00,40.6,29.8,29.97,NNW,346,5.0,17.0,65,0.00,,---,0.00,VWS V14.00,2013-01-07 03:24:00,
2013-01-06 22:27:00,40.6,29.8,29.97,North,11,6.0,17.0,65,0.00,,---,0.00,VWS V14.00,2013-01-07 03:27:00,
2013-01-06 22:30:00,40.7,29.9,29.97,WNW,297,6.0,17.0,65,0.00,,---,0.00,VWS V14.00,2013-01-07 03:30:00,
2013-01-06 22:33:00,40.6,29.8,29.97,NNW,343,8.0,12.0,65,0.00,,---,0.00,VWS V14.00,2013-01-07 03:33:00,
2013-01-06 22:36:00,40.6,29.8,29.97,NNW,334,3.0,12.0,65,0.00,,---,0.00,VWS V14.00,2013-01-07 03:36:00,
2013-01-06 22:39:00,40.4,29.6,29.97,NW,312,2.0,12.0,65,0.00,,---,0.00,VWS V14.00,2013-01-07 03:39:00,
2013-01-06 22:42:00,40.5,29.7,29.98,NNW,345,7.0,13.0,65,0.00,,---,0.00,VWS V14.00,2013-01-07 03:42:00,
2013-01-06 22:45:00,40.5,29.7,29.98,NNW,339,4.0,13.0,65,0.00,,---,0.00,VWS V14.00,2013-01-07 03:45:00,
2013-01-06 22:48:00,40.5,29.7,29.98,NW,318,4.0,14.0,65,0.00,,---,0.00,VWS V14.00,2013-01-07 03:48:00,
2013-01-06 22:51:00,40.4,29.6,29.97,NNW,343,12.0,14.0,65,0.00,,---,0.00,VWS V14.00,2013-01-07 03:51:00,
2013-01-06 22:54:00,40.4,29.6,29.98,NNW,335,4.0,14.0,65,0.00,,---,0.00,VWS V14.00,2013-01-07 03:54:00,
2013-01-06 22:57:00,40.4,30.0,29.98,North,351,6.0,14.0,66,0.00,,---,0.00,VWS V14.00,2013-01-07 03:57:00,
2013-01-06 23:00:00,40.3,29.9,29.98,NNW,336,4.0,14.0,66,0.00,,---,0.00,VWS V14.00,2013-01-07 04:00:00,
2013-01-06 23:03:00,40.3,29.9,29.98,NNE,20,9.0,12.0,66,0.00,,---,0.00,VWS V14.00,2013-01-07 04:03:00,
2013-01-06 23:06:00,40.4,29.6,29.98,North,360,7.0,12.0,65,0.00,,---,0.00,VWS V14.00,2013-01-07 04:06:00,
2013-01-06 23:09:00,40.4,29.6,29.97,North,351,4.0,12.0,65,0.00,,---,0.00,VWS V14.00,2013-01-07 04:09:00,
2013-01-06 23:12:00,40.3,29.5,29.97,NNW,342,5.0,12.0,65,0.00,,---,0.00,VWS V14.00,2013-01-07 04:12:00,
2013-01-06 23:15:00,40.3,29.1,29.98,NNW,339,5.0,12.0,64,0.00,,---,0.00,VWS V14.00,2013-01-07 04:15:00,
2013-01-06 23:18:00,40.3,29.5,29.98,NNW,333,4.0,12.0,65,0.00,,---,0.00,VWS V14.00,2013-01-07 04:18:00,
2013-01-06 23:21:00,40.1,29.3,29.98,NNW,340,5.0,12.0,65,0.00,,---,0.00,VWS V14.00,2013-01-07 04:21:00,
2013-01-06 23:24:00,40.0,29.2,29.98,NNE,20,7.0,12.0,65,0.00,,---,0.00,VWS V14.00,2013-01-07 04:24:00,
2013-01-06 23:27:00,39.9,29.1,29.98,NNW,330,2.0,12.0,65,0.00,,---,0.00,VWS V14.00,2013-01-07 04:27:00,
2013-01-06 23:30:00,39.8,29.0,29.98,NNE,22,2.0,12.0,65,0.00,,---,0.00,VWS V14.00,2013-01-07 04:30:00,
2013-01-06 23:33:00,39.5,29.1,29.98,NE,43,4.0,7.0,66,0.00,,---,0.00,VWS V14.00,2013-01-07 04:33:00,
2013-01-06 23:36:00,39.2,29.2,29.98,NNE,26,4.0,9.0,67,0.00,,---,0.00,VWS V14.00,2013-01-07 04:36:00,
2013-01-06 23:39:00,39.1,29.1,29.98,NNE,27,5.0,9.0,67,0.00,,---,0.00,VWS V14.00,2013-01-07 04:39:00,
2013-01-06 23:42:00,38.9,29.2,29.98,NE,49,6.0,9.0,68,0.00,,---,0.00,VWS V14.00,2013-01-07 04:42:00,
2013-01-06 23:45:00,38.8,29.2,29.98,NE,49,3.0,10.0,68,0.00,,---,0.00,VWS V14.00,2013-01-07 04:45:00,
2013-01-06 23:48:00,38.8,29.2,29.98,North,6,2.0,11.0,68,0.00,,---,0.00,VWS V14.00,2013-01-07 04:48:00,
2013-01-06 23:51:00,38.7,29.4,29.98,NE,56,4.0,11.0,69,0.00,,---,0.00,VWS V14.00,2013-01-07 04:51:00,
2013-01-06 23:54:00,38.6,29.3,29.99,NNW,348,3.0,11.0,69,0.00,,---,0.00,VWS V14.00,2013-01-07 04:54:00,
2013-01-06 23:57:00,38.5,29.2,29.98,North,360,1.0,11.0,69,0.00,,---,0.00,VWS V14.00,2013-01-07 04:57:00,